CAPE
1350 1195 1348 1651 198 212 1 45 50 231 259 90 156 59 91 21 12 3 16 44 69 99 835 1499 1977 1698 1640 1702 1586 1737 1585 1550 1584 2012 1923 1733 1707 1922 1681 1601 1654 1625 1702 1470 1453 1680 1672 1588 1551
1183 1448 1880 1447 254 115 40 8 98 172 82 37 54 48 26 51 35 79 22 60 43 38 780 1518 1900 1844 1199 1457 1389 1920 1664 1757 1712 1564 1363 1238 1460 1724 1789 1946 1465 1319 1323 1310 1552 1682 1758 1707 1683
859 1290 803 960 142 57 190 208 388 145 212 198 91 18 24 52 54 55 10 50 28 101 650 765 1573 1559 1421 1485 1613 1660 1743 1680 1104 1072 1740 985 1087 770 880 846 1022 1261 1670 1692 1638 1491 1369 1310 1306
236 1039 956 987 105 52 111 470 602 338 254 34 8 3 50 58 58 32 43 23 11 246 780 1850 1749 1629 1416 1443 1591 1249 1023 643 658 1584 1341 1172 1814 1809 1456 1392 1660 1645 1478 1377 1276 1171 1265 1335 1413
97 1125 908 627 187 225 382 463 358 188 106 62 40 6 17 54 23 37 30 9 34 88 526 1358 1981 1503 1582 1452 1308 609 1193 1552 1555 1493 1487 1545 1759 1630 1552 1645 1609 1477 1286 1204 1168 1216 1226 1237 1421
484 424 537 61 352 537 509 408 345 140 19 16 1 2 43 32 14 37 24 25 56 367 683 1152 1440 1487 1445 1448 1106 754 1694 1696 1714 1758 1828 1543 1328 1642 1571 1367 1259 1237 1268 1280 1287 1300 1274 1364 1578
772 65 148 173 489 490 502 352 220 167 97 21 0 6 53 22 13 32 38 62 220 360 535 792 972 1117 1420 1453 769 619 1670 1668 1496 1260 1526 1521 1454 1367 1318 1280 1276 1215 1190 1197 1316 1243 1316 1553 1857
204 8 61 230 408 433 499 448 314 146 70 34 0 4 54 2 5 16 34 114 148 223 436 528 549 758 924 1242 1325 924 887 1075 1189 1026 1429 1573 1645 1439 1444 1772 1854 1568 1404 1321 1199 1303 1643 1816 1915
110 22 10 246 287 346 425 424 361 209 76 146 35 0 0 13 0 8 33 92 55 92 219 357 503 568 543 967 1443 1861 1624 1434 1006 843 1145 1522 1238 966 1248 1532 1685 1547 1105 1102 1038 1396 757 339 661
21 9 6 191 424 472 495 470 417 316 171 73 0 0 0 0 0 0 7 16 14 62 168 171 215 514 370 841 521 393 727 711 497 356 523 376 491 779 1099 1415 1746 1633 1182 1811 1836 1530 1242 285 81
0 0 2 370 450 542 516 482 478 295 197 56 0 1 0 0 0 0 0 3 33 126 220 250 354 201 100 361 357 360 366 483 292 48 3 369 1038 846 1093 522 5 18 846 1429 1636 832 5 62 38
0 0 1 15 329 422 492 487 410 414 206 62 0 0 0 0 0 0 0 0 18 23 46 211 271 139 129 178 90 251 350 104 97 472 434 990 652 850 630 142 358 584 818 639 765 272 7 43 119
0 0 23 376 671 617 681 656 558 364 201 85 0 0 0 0 0 0 0 0 1 0 1 4 21 56 1 0 0 29 129 146 44 153 793 1062 934 814 883 1048 671 252 808 360 631 204 51 13 24
0 0 15 353 617 719 645 572 501 414 248 99 0 0 0 0 0 0 0 0 0 0 0 0 95 32 0 0 0 0 56 176 353 345 942 1220 1271 1244 1315 450 0 0 777 631 644 440 264 521 654
0 0 9 282 378 570 634 530 527 438 366 216 51 16 0 0 0 0 0 0 0 0 0 0 114 103 192 202 35 121 277 493 213 852 1224 987 1017 1202 1419 322 0 0 55 537 653 634 1226 1412 944
0 0 0 0 362 458 321 625 557 420 349 423 336 233 141 30 0 0 0 0 0 0 0 0 286 14 16 652 325 122 57 196 57 155 434 754 985 992 955 566 93 0 0 48 869 848 1096 623 397
0 0 0 0 66 373 351 687 596 433 308 242 185 312 216 131 40 1 0 0 0 0 0 16 24 0 0 181 68 8 366 295 19 14 60 377 742 1165 948 857 803 271 70 890 850 1082 908 901 353
0 0 0 0 52 225 414 481 708 529 364 278 230 282 234 130 74 0 0 0 0 0 0 2 0 0 0 0 0 96 268 171 157 98 20 253 443 591 878 1363 1277 1418 1161 967 563 666 1018 1012 983
20 0 0 0 63 97 80 558 700 519 497 403 236 210 203 143 82 9 4 0 0 0 0 0 0 0 0 0 0 0 0 0 0 8 135 76 34 636 1800 1628 1167 1523 1306 1296 900 1179 963 715 966
0 0 0 0 13 4 333 537 618 597 586 459 355 281 185 108 63 27 13 0 0 0 0 0 0 0 0 0 0 1 2 17 10 253 297 275 400 529 1307 1689 1515 1872 1761 1605 1571 1037 1065 1150 849
0 0 1 1 0 0 168 212 402 536 469 400 378 286 227 169 52 74 47 0 0 0 0 0 0 0 0 0 0 19 316 215 105 19 2 1 80 473 931 1479 1506 1842 1818 1820 1747 1432 1169 1318 1062
0 0 0 0 0 0 3 1 53 202 246 328 373 318 240 151 112 118 103 1 0 0 0 0 0 0 0 7 88 167 206 467 85 17 0 116 463 654 592 1637 583 505 1377 1158 1788 1881 1541 1352 1226
0 0 0 8 6 0 0 7 0 0 43 100 218 256 168 172 118 164 84 64 21 4 0 21 0 2 135 0 124 119 63 31 109 285 540 264 449 1073 1383 1043 0 0 309 45 1189 1492 1641 947 1176
4 0 0 0 0 0 4 23 0 0 0 33 54 215 100 89 197 189 136 83 81 53 19 84 75 93 129 391 111 135 285 443 722 706 498 935 841 1241 1462 0 0 1 0 59 833 1443 1219 1048 884
1 0 0 0 0 0 0 0 0 0 0 0 0 63 56 93 290 295 211 147 106 97 100 156 135 117 212 295 329 335 157 110 189 319 476 498 819 1055 1452 15 173 392 252 658 1424 964 768 841 724
0 0 0 0 0 0 0 0 0 0 0 0 0 0 0 122 103 180 200 250 245 224 213 293 172 134 162 321 617 449 512 729 1093 1482 1381 1157 995 1253 1248 1076 1090 880 884 1170 878 876 593 583 547
0 0 0 0 0 0 0 0 0 0 0 0 0 0 0 134 156 217 174 158 233 249 351 486 501 295 427 582 701 1305 1042 1021 1125 1230 1306 1143 844 952 1598 1383 1315 1225 1166 960 750 160 0 0 0
0 0 0 0 0 0 0 0 0 0 0 0 0 0 0 12 98 215 217 200 226 237 215 514 791 1009 1080 1309 1304 1250 1633 1617 1470 1418 1294 1917 1993 1903 1479 1192 988 1012 332 42 0 0 0 0 0
0 0 0 0 0 0 0 0 0 0 0 0 0 0 0 0 1 65 133 138 231 238 209 242 747 1050 1280 1453 1541 1570 1410 1656 1695 1565 1532 1689 1734 1420 1307 802 220 0 0 0 0 0 0 0 0
0 0 0 0 0 0 0 0 0 0 0 0 0 0 0 0 0 2 41 61 148 130 82 221 792 1056 1233 1419 1463 1558 1517 1595 1741 1833 2015 2083 1505 1228 569 3 0 0 0 0 0 0 0 0 0
CIN
-192 -190 -111 -34 -145 -79 -19 -50 -121 -23 -23 -86 -38 -53 -84 -108 -111 -6 -42 -9 -15 -20 -5 -1 -0 -0 -0 -0 -0 -0 -0 -0 -0 -0 -0 -0 -0 -0 -0 -0 -0 -0 -0 -0 -1 -1 -1 -5 -4
-195 -135 -94 -81 -111 -55 -18 -40 -85 -69 -115 -104 -106 -105 -124 -93 -134 -73 -93 -14 -25 -32 -9 -2 -0 -0 -0 -0 -0 -0 -0 -0 -0 -0 -0 -1 -0 -0 -0 -0 -0 -0 -0 -2 -7 -8 -9 -7 -15
-246 -105 -136 -65 -79 -64 -34 -29 -22 -49 -56 -67 -107 -107 -111 -107 -76 -75 -99 -30 -51 -28 -12 -2 -0 -0 -0 -0 -0 -0 -0 -0 -0 -0 -0 -0 -0 -7 -3 -4 -2 -0 -0 -0 -11 -21 -32 -26 -27
-376 -187 -178 -51 -90 -79 -76 -26 -24 -61 -64 -150 -140 -0 -54 -63 -39 -86 -65 -58 -65 -11 -9 -0 -0 -0 -0 -0 -0 -0 -0 -6 -3 -0 -0 -0 -0 -0 -0 -0 -0 -0 -1 -2 -22 -36 -34 -36 -30
-380 -184 -74 -33 -37 -30 -46 -42 -56 -102 -120 -95 -86 -35 -67 -31 -66 -56 -76 -123 -73 -50 -9 -2 -0 -0 -0 -0 -0 -11 -0 -0 -0 -0 -0 -0 -0 -0 -0 -0 -0 -4 -11 -7 -19 -33 -38 -28 -26
-185 -186 -50 -40 -36 -47 -58 -117 -152 -170 -189 -183 -0 -0 -60 -31 -51 -59 -107 -67 -47 -10 -7 -1 -0 -0 -1 -0 -1 -10 -0 -0 -0 -0 -0 -1 -7 -10 -9 -17 -30 -35 -32 -24 -28 -34 -31 -34 -25
-94 -112 -87 -53 -54 -46 -78 -100 -163 -159 -148 -170 -0 -0 -91 -9 -64 -71 -103 -76 -15 -15 -13 -8 -4 -1 -0 -0 -14 -23 -0 -0 -0 -8 -10 -5 -13 -23 -25 -26 -32 -31 -38 -32 -30 -42 -38 -37 -20
-156 -121 -100 -38 -48 -72 -93 -93 -98 -147 -163 -174 -0 -0 -123 -0 -94 -75 -87 -28 -30 -20 -16 -19 -26 -20 -19 -4 -4 -20 -30 -23 -14 -29 -12 -5 -8 -21 -16 -14 -13 -19 -25 -24 -37 -57 -71 -75 -73
-121 -86 -41 -43 -60 -75 -82 -128 -67 -109 -191 -94 -165 -0 -0 -168 -0 -92 -84 -53 -83 -48 -31 -40 -36 -41 -49 -33 -4 -0 -0 -6 -13 -31 -17 -9 -39 -62 -35 -27 -22 -24 -33 -29 -62 -74 -119 -187 -177
-102 -131 -45 -57 -76 -69 -78 -120 -130 -126 -132 -139 -0 -0 -0 -0 -0 -0 -69 -129 -129 -79 -60 -92 -77 -51 -77 -39 -76 -103 -64 -68 -73 -115 -87 -111 -132 -126 -83 -54 -30 -33 -37 -14 -52 -63 -73 -185 -344
-0 -0 -40 -60 -44 -77 -91 -92 -114 -146 -114 -224 -0 -0 -0 -0 -0 -0 -0 -158 -132 -84 -47 -62 -59 -101 -144 -100 -136 -141 -164 -143 -173 -121 -45 -203 -127 -150 -126 -167 -149 -412 -111 -64 -81 -152 -26 -280 -347
-0 -0 -31 -138 -73 -87 -72 -106 -119 -98 -177 -232 -0 -0 -0 -0 -0 -0 -0 -0 -148 -157 -118 -63 -70 -148 -162 -182 -242 -223 -206 -290 -255 -147 -153 -91 -134 -126 -166 -256 -201 -178 -172 -227 -161 -222 -310 -263 -258
-0 -0 -102 -106 -89 -65 -71 -68 -89 -119 -161 -188 -0 -0 -0 -0 -0 -0 -0 -0 -97 -0 -83 -103 -114 -165 -35 -0 -0 -275 -230 -236 -321 -258 -155 -124 -116 -114 -127 -119 -174 -268 -182 -279 -173 -282 -321 -330 -110
-0 -0 -101 -120 -110 -140 -176 -125 -128 -82 -116 -145 -0 -0 -0 -0 -0 -0 -0 -0 -0 -0 -0 -0 -114 -171 -0 -0 -0 -0 -271 -240 -190 -218 -147 -83 -87 -75 -94 -174 -0 -0 -160 -166 -202 -190 -221 -191 -178
-0 -0 -71 -142 -139 -176 -185 -126 -121 -126 -98 -101 -184 -231 -0 -0 -0 -0 -0 -0 -0 -0 -0 -0 -131 -150 -134 -153 -168 -195 -191 -177 -194 -137 -95 -85 -83 -86 -87 -197 -0 -0 -280 -138 -149 -137 -106 -95 -126
-0 -0 -0 -0 -139 -197 -208 -129 -116 -143 -129 -70 -85 -95 -115 -240 -0 -0 -0 -0 -0 -0 -0 -0 -71 -149 -141 -123 -151 -172 -224 -205 -237 -167 -138 -105 -79 -86 -109 -150 -223 -0 -0 -77 -130 -126 -82 -139 -168
-0 -0 -0 -0 -181 -118 -185 -158 -141 -173 -189 -190 -199 -132 -164 -198 -288 -32 -0 -0 -0 -0 -0 -175 -121 -0 -0 -145 -177 -170 -151 -161 -181 -266 -196 -148 -83 -100 -127 -139 -122 -230 -306 -126 -143 -89 -107 -109 -167
-0 -0 -0 -0 -171 -130 -182 -210 -221 -200 -231 -248 -233 -179 -182 -245 -257 -0 -0 -0 -0 -0 -0 -36 -0 -0 -0 -0 -0 -170 -173 -187 -198 -207 -257 -127 -116 -85 -98 -100 -98 -96 -124 -126 -152 -141 -121 -130 -137
-81 -19 -0 -0 -177 -172 -221 -197 -294 -247 -207 -232 -304 -283 -258 -280 -307 -407 -398 -0 -0 -0 -0 -0 -0 -0 -0 -0 -0 -0 -0 -0 -1 -270 -180 -232 -208 -76 -71 -85 -106 -110 -98 -102 -153 -127 -133 -150 -130
-0 -0 -0 -0 -251 -115 -204 -186 -271 -294 -278 -269 -305 -304 -323 -339 -371 -396 -384 -0 -0 -0 -0 -0 -0 -0 -0 -0 -0 -38 -68 -61 -73 -197 -199 -191 -172 -126 -87 -87 -86 -85 -83 -97 -113 -143 -109 -130 -156
-0 -0 -105 -43 -0 -0 -186 -175 -231 -279 -274 -234 -240 -289 -320 -338 -423 -372 -378 -0 -0 -0 -0 -0 -0 -0 -0 -0 -0 -90 -221 -240 -261 -175 -127 -32 -242 -155 -130 -103 -107 -98 -100 -77 -86 -95 -115 -87 -144
-0 -0 -0 -20 -0 -0 -15 -10 -323 -315 -300 -255 -257 -282 -316 -335 -396 -416 -386 -30 -0 -0 -0 -0 -0 -0 -0 -294 -290 -243 -232 -192 -303 -352 -0 -236 -164 -194 -182 -108 -203 -251 -154 -155 -97 -66 -83 -95 -78
-0 -0 -4 -147 -143 -0 -0 -75 -0 -0 -347 -327 -304 -311 -331 -328 -422 -445 -431 -439 -474 -260 -0 -423 -33 -227 -306 -0 -315 -321 -339 -348 -329 -298 -225 -261 -234 -173 -139 -174 -0 -0 -339 -431 -161 -94 -82 -151 -86
-10 -9 -0 -0 -0 -0 -52 -41 -0 -0 -0 -416 -336 -332 -377 -424 -435 -447 -435 -448 -457 -440 -507 -451 -457 -435 -410 -327 -419 -384 -339 -294 -228 -235 -274 -188 -197 -152 -149 -0 -0 -31 -11 -490 -220 -98 -115 -118 -98
-10 -0 -0 -0 -0 -0 -0 -0 -0 -0 -0 -0 -11 -404 -414 -439 -441 -441 -460 -495 -505 -497 -495 -470 -525 -506 -477 -430 -406 -415 -450 -443 -379 -339 -316 -296 -210 -169 -159 -224 -380 -349 -408 -284 -115 -156 -152 -109 -85
-0 -0 -0 -0 -0 -0 -0 -0 -0 -0 -0 -0 -0 -0 -0 -430 -466 -479 -491 -483 -490 -494 -479 -495 -560 -551 -571 -480 -412 -451 -415 -348 -266 -160 -170 -207 -218 -174 -194 -233 -231 -272 -262 -146 -155 -120 -146 -119 -81
-0 -0 -0 -0 -0 -0 -0 -0 -0 -0 -0 -0 -0 -0 -0 -432 -464 -473 -509 -540 -510 -527 -530 -500 -492 -543 -513 -464 -448 -337 -367 -358 -311 -259 -223 -228 -283 -276 -154 -181 -167 -157 -125 -111 -114 -342 -0 -0 -0
-0 -0 -0 -0 -0 -0 -0 -0 -0 -0 -0 -0 -0 -0 -0 -289 -493 -462 -496 -506 -518 -504 -539 -505 -474 -449 -452 -399 -392 -401 -327 -303 -291 -266 -266 -126 -114 -104 -169 -198 -203 -167 -412 -350 -0 -0 -0 -0 -0
-0 -0 -0 -0 -0 -0 -0 -0 -0 -0 -0 -0 -0 -0 -0 -0 -24 -555 -519 -550 -546 -541 -572 -605 -541 -503 -481 -436 -419 -394 -413 -320 -278 -271 -252 -179 -142 -175 -162 -261 -509 -0 -0 -0 -0 -0 -0 -0 -0
-0 -0 -0 -0 -0 -0 -0 -0 -0 -0 -0 -0 -0 -0 -0 -0 -0 -261 -578 -581 -631 -623 -625 -605 -564 -542 -531 -510 -491 -454 -417 -350 -279 -234 -164 -127 -181 -205 -374 -26 -0 -0 -0 -0 -0 -0 -0 -0 -0
Wind_Speed
7 7 2 3 4 4 2 2 5 8 5 3 5 7 10 11 2 6 4 4 5 5 4 6 11 14 14 13 13 13 13 13 13 14 14 15 14 14 13 13 12 12 11 11 10 8 8 8 8
7 4 2 2 4 4 2 5 8 8 12 14 11 8 9 5 5 10 7 4 5 5 6 6 11 13 13 13 12 12 12 12 13 14 13 13 12 13 12 12 12 11 10 9 8 6 5 5 5
11 6 1 2 3 4 6 9 15 16 12 6 6 10 5 4 6 3 6 6 6 5 6 9 14 13 13 12 12 12 12 12 12 12 12 12 13 12 11 10 10 9 8 6 5 3 1 2 2
4 2 3 1 10 6 14 19 17 16 9 7 12 9 5 7 2 6 8 6 7 5 6 10 13 13 13 12 12 11 10 11 10 10 12 12 12 10 11 10 8 6 5 3 2 1 2 2 3
1 2 3 1 9 12 18 17 10 9 8 10 3 5 5 3 11 9 6 5 6 5 5 6 13 13 12 12 11 12 10 9 10 9 11 11 10 9 9 7 6 4 3 1 2 4 5 5 7
1 2 2 6 14 12 12 15 14 15 15 15 12 8 4 7 9 7 5 4 5 7 6 6 12 12 12 12 12 11 10 10 10 10 10 9 8 8 7 5 5 5 4 4 4 6 7 7 8
2 1 2 13 15 11 10 12 15 14 12 6 13 7 5 5 6 8 6 4 6 7 6 5 5 9 11 10 11 10 10 9 7 7 7 8 7 6 6 6 6 6 6 7 7 7 8 9 9
5 2 5 6 11 7 14 6 13 12 7 13 13 7 8 8 8 7 5 5 7 6 5 6 5 5 5 4 9 10 9 7 6 5 5 4 4 5 6 7 7 8 8 8 8 9 6 6 7
4 3 2 7 16 10 13 18 9 9 12 3 7 9 12 14 11 9 7 6 5 5 6 5 5 6 4 4 4 5 7 6 4 2 3 2 2 4 5 8 10 9 9 10 10 7 8 9 6
5 4 5 7 16 17 18 21 12 7 10 8 12 16 16 13 11 10 7 5 5 5 6 5 5 4 4 3 3 3 0 2 2 1 3 2 4 5 6 9 12 11 10 11 8 11 11 11 3
2 5 8 20 14 19 18 13 7 16 4 12 22 22 16 13 10 9 7 7 6 5 3 5 4 4 4 3 2 2 1 1 2 3 3 4 4 4 2 1 1 3 7 4 6 8 3 4 3
6 6 8 5 13 16 15 10 14 4 5 16 18 19 16 12 10 9 8 6 6 5 5 5 4 5 5 3 2 3 2 1 1 2 5 2 0 1 2 2 3 2 1 4 5 4 6 6 5
3 6 15 19 20 15 15 10 10 14 17 17 17 17 15 12 10 6 6 6 6 5 5 6 6 5 5 5 2 1 1 1 1 3 4 4 3 2 1 3 2 2 4 3 5 4 5 5 5
2 12 16 18 18 16 21 16 6 15 18 18 16 15 13 12 12 7 8 8 7 5 6 6 6 6 5 5 4 2 1 3 4 4 5 3 1 3 1 2 1 3 2 4 3 5 4 5 4
5 8 9 15 11 13 19 6 10 18 20 20 18 14 15 14 13 12 12 11 9 5 6 7 7 7 6 5 4 2 3 4 3 3 5 5 4 3 2 2 3 3 3 5 3 3 3 4 2
6 7 4 3 7 11 6 5 14 16 17 17 17 16 15 13 13 11 12 13 10 7 7 7 7 7 6 4 2 1 3 3 2 1 3 6 5 3 2 2 4 4 4 4 3 3 3 3 3
8 2 1 0 3 7 3 10 15 16 15 16 16 16 14 14 13 12 12 13 13 10 7 8 7 7 7 5 3 3 4 3 4 2 2 5 5 6 3 2 4 4 3 4 3 2 1 3 5
4 2 3 4 4 15 5 7 20 19 17 16 14 14 14 16 16 15 14 13 12 10 9 11 7 7 8 5 2 1 2 4 4 4 1 5 5 4 0 3 3 1 2 3 2 2 2 0 2
8 5 5 5 2 4 2 14 21 18 15 16 15 14 13 15 15 13 15 14 11 10 10 12 9 8 4 2 2 1 3 3 3 4 7 7 5 4 2 3 2 2 1 1 1 1 2 3 2
12 8 6 6 7 4 7 11 17 21 21 20 20 18 18 15 14 14 13 14 12 11 12 11 10 9 9 4 3 3 3 4 3 3 5 3 5 5 5 4 3 4 3 3 2 0 2 1 1
1 4 4 6 4 5 10 3 14 18 17 16 17 17 17 18 16 15 14 12 11 12 12 12 11 12 12 8 3 1 1 2 2 3 4 3 6 8 6 3 4 3 3 3 2 1 2 2 2
5 10 9 7 3 4 9 5 12 17 19 18 18 17 18 18 17 16 17 15 13 14 11 12 11 12 9 10 7 7 5 5 4 3 3 5 6 6 5 4 3 1 2 4 4 3 1 1 3
16 7 15 15 10 2 5 4 7 10 15 19 20 20 18 20 20 20 19 18 17 14 14 12 13 13 10 11 9 7 6 4 4 4 5 4 6 3 6 5 2 2 1 3 4 5 3 1 1
7 8 15 6 4 8 16 7 5 13 22 21 20 20 19 18 20 20 19 17 16 14 13 13 14 14 12 10 9 10 9 6 4 4 4 4 2 1 5 2 3 3 2 3 4 3 4 2 1
14 14 4 3 2 8 10 4 11 23 17 24 24 22 20 19 19 18 18 17 16 17 15 13 15 15 12 12 11 11 10 8 8 7 5 5 3 1 4 4 4 3 2 4 3 3 4 3 3
8 19 8 7 5 6 6 7 12 28 22 23 25 27 21 20 19 19 20 19 19 19 18 17 15 15 12 12 13 10 9 7 6 6 4 4 3 3 4 5 3 3 4 1 3 3 4 5 5
8 3 9 7 2 3 4 7 7 17 20 20 20 19 20 21 20 21 20 19 18 18 18 18 15 15 13 14 11 10 10 9 8 7 6 4 5 4 3 3 3 1 2 2 4 5 6 6 5
10 6 4 3 4 2 5 6 4 10 20 20 20 23 21 20 20 19 19 20 18 17 15 14 15 16 13 13 11 10 11 9 7 6 7 6 4 4 5 5 3 5 7 7 7 5 5 6 4
1 3 4 8 6 7 2 8 9 18 18 23 24 25 22 23 22 20 20 18 18 16 15 15 14 15 13 13 12 11 9 8 7 7 6 5 5 5 5 5 7 8 7 6 6 5 5 6 5
10 12 8 7 5 2 6 8 6 14 16 19 23 23 23 24 23 20 19 18 18 19 17 17 16 16 15 15 13 12 9 8 7 6 5 6 6 6 7 8 9 7 7 6 6 6 5 6 6
Wind_Direction
164 175 169 203 70 74 151 208 300 142 139 347 58 113 101 38 29 132 136 147 142 115 132 116 108 102 100 96 94 95 93 91 90 92 94 90 92 93 98 97 97 100 94 94 94 93 93 99 98
157 123 28 20 96 135 148 146 235 223 132 111 87 94 58 72 46 113 118 181 135 126 120 111 107 106 104 96 97 94 95 93 90 90 93 94 95 90 89 94 105 103 101 102 99 92 80 75 77
168 163 133 192 141 155 130 182 124 132 128 100 111 59 61 78 75 100 117 148 134 113 130 125 120 114 106 98 98 98 101 99 94 101 96 97 100 102 104 104 105 110 111 108 109 110 83 2 25
159 150 283 3 105 115 130 150 131 128 85 72 109 77 81 1 98 149 145 155 118 114 127 125 121 113 110 109 102 95 96 96 101 100 102 106 100 111 107 112 114 107 112 133 153 220 244 283 298
246 248 61 42 99 123 116 125 112 98 101 99 122 108 69 53 108 122 130 128 116 91 103 106 114 115 116 114 109 107 103 105 101 108 114 116 113 115 120 122 119 126 130 236 280 280 292 308 313
300 295 333 90 97 94 87 100 98 96 98 110 98 101 83 119 127 126 112 119 113 116 114 110 118 119 122 118 118 119 111 124 124 125 125 127 132 133 136 154 165 187 206 235 265 291 299 305 308
200 6 289 121 116 111 126 138 125 130 113 76 139 107 118 137 133 142 143 131 109 108 102 91 109 127 126 122 124 129 123 131 133 133 145 146 151 163 180 203 205 221 235 253 263 277 289 301 308
162 138 341 131 154 128 153 123 124 128 92 120 141 160 163 164 151 151 116 97 83 86 109 104 108 111 105 120 141 141 147 149 144 152 165 168 182 200 221 229 247 248 251 262 269 275 289 283 294
113 60 291 170 134 124 131 122 123 86 127 146 196 145 136 150 149 132 111 97 82 79 106 141 138 123 141 158 156 132 156 151 154 184 244 233 280 275 270 269 257 266 273 279 280 264 274 301 335
121 143 228 138 122 148 145 131 125 121 121 104 101 114 139 149 144 143 129 115 114 140 159 162 141 166 186 155 124 141 73 120 128 203 243 270 251 254 256 257 282 288 275 273 251 264 277 292 273
183 182 123 138 150 138 134 133 112 131 152 177 148 147 152 154 154 147 132 151 165 164 143 156 167 153 178 149 162 101 134 196 180 215 190 244 245 241 237 152 302 287 300 284 250 278 248 243 310
116 174 125 124 101 137 146 115 125 125 133 145 140 147 152 160 163 161 157 159 169 159 176 173 138 99 148 138 164 166 139 8 225 251 252 234 135 165 259 259 280 295 30 297 269 274 294 316 331
130 95 91 104 101 117 108 106 100 106 125 134 140 152 161 164 171 157 152 169 178 175 188 185 142 154 186 126 184 203 144 215 219 250 267 199 181 216 249 267 18 359 272 268 257 264 272 288 310
215 118 132 120 117 126 113 121 103 136 139 143 151 164 171 178 181 156 162 182 195 195 197 177 152 175 191 141 155 159 167 261 258 253 253 254 228 259 329 272 124 246 225 244 221 237 260 267 265
34 91 87 125 140 117 111 51 119 152 154 158 168 175 178 188 182 179 178 183 191 202 200 180 169 170 182 169 181 171 271 284 296 242 261 264 238 272 267 274 310 289 259 287 255 232 234 268 277
66 51 94 207 135 156 80 142 152 158 156 163 175 178 184 181 186 182 179 187 190 199 183 196 186 170 185 188 161 235 267 289 256 232 254 240 261 267 235 264 276 279 296 303 310 302 321 287 339
31 98 70 148 248 172 117 136 172 168 171 173 182 181 187 189 199 196 189 189 191 199 185 187 197 178 180 197 183 228 296 312 298 267 297 246 235 211 202 240 289 299 300 308 281 305 310 343 340
131 124 214 214 252 163 136 153 167 177 180 183 179 187 189 190 196 188 189 190 183 184 183 188 188 186 186 183 183 246 299 287 284 299 253 259 250 230 264 207 228 286 253 278 310 291 325 303 298
146 212 148 279 208 127 201 150 175 182 181 188 185 186 195 199 195 186 185 188 185 185 183 186 178 196 164 158 168 211 239 268 301 290 288 239 231 251 224 229 253 229 264 301 280 316 343 327 350
179 186 211 217 250 101 121 169 187 179 195 192 188 188 196 197 188 191 185 186 189 185 193 187 188 184 196 187 171 165 196 245 241 267 282 261 252 263 252 255 282 293 328 337 344 42 343 267 248
174 191 201 195 126 136 125 197 197 203 195 197 201 200 196 191 189 191 189 192 191 191 189 191 190 189 199 188 152 169 354 335 299 267 280 255 235 244 243 254 294 302 292 315 304 293 213 267 307
220 224 229 248 101 245 150 247 209 198 200 198 202 202 203 195 192 189 194 196 196 201 195 192 193 191 193 180 174 175 180 214 236 234 250 287 309 264 212 180 219 321 19 339 330 303 245 156 297
222 198 219 234 234 22 212 129 249 156 203 202 201 203 204 194 187 191 194 196 200 194 194 193 191 198 196 190 189 183 197 219 253 274 284 291 286 242 222 199 149 232 267 325 320 321 325 109 249
172 193 248 267 164 201 207 148 261 190 200 197 197 201 197 184 189 192 193 191 199 197 190 190 190 200 197 188 190 189 195 197 225 264 263 262 291 282 236 291 307 310 334 323 308 296 29 50 22
202 194 243 241 162 215 166 137 224 209 195 190 187 196 196 185 182 187 190 194 196 199 197 193 194 202 194 193 195 203 205 194 213 233 253 274 282 250 231 223 257 281 279 316 320 23 9 359 9
183 215 177 221 211 259 140 213 248 193 182 186 189 187 184 183 184 184 186 191 197 200 202 198 193 201 194 194 204 204 203 206 207 205 217 238 243 238 218 232 227 304 321 301 24 30 14 18 26
229 189 198 134 34 52 245 300 336 165 178 183 183 182 184 183 187 187 190 192 190 192 194 194 190 199 196 199 201 201 202 204 204 203 219 228 252 242 212 122 99 163 123 44 43 45 46 47 39
160 217 234 19 132 222 313 298 206 176 179 184 180 190 190 187 187 190 190 193 196 198 194 187 188 192 193 194 199 202 202 197 197 196 216 214 207 147 138 137 123 64 54 59 73 51 33 51 24
160 221 37 116 133 161 204 272 201 185 187 180 188 191 185 187 190 190 193 194 191 191 189 189 185 186 189 192 197 200 196 188 193 201 212 209 163 157 131 108 80 77 68 54 62 62 40 42 23
179 199 165 125 232 150 162 261 267 176 180 197 190 191 189 190 190 191 194 189 186 191 187 189 186 189 192 193 193 198 186 184 193 201 189 168 154 123 97 93 84 77 69 58 56 47 22 37 26